Regional Weather Roundup
Issued by NWS

Home | Current Version | Previous Version | Text Only | Print | Product List | Glossary On
Versions: 1 2 3 4 5 6 7 8 9 10 11 12 13 14 15 16 17 18 19 20 21 22 23 24 25 26 27 28 29 30 31 32 33 34 35 36 37 38 39 40 41 42 43 44 45 46 47 48 49 50
000
ASUS43 KDTX 150701
RWRMI
MICHIGAN HOURLY REGIONAL WEATHER ROUNDUP
NATIONAL WEATHER SERVICE DETROIT/PONTIAC MI
200 AM EST FRI DEC 15 2017

NOTE: "FAIR" INDICATES FEW OR NO CLOUDS BELOW 12,000 FEET WITH NO
SIGNIFICANT WEATHER AND/OR OBSTRUCTION TO VISIBILITY.

MIZ047>049-052>055-059>063-066>070-074>076-081>083-150800-
SOUTHEAST LOWER MICHIGAN

CITY           SKY/WX    TMP DP  RH WIND       PRES   REMARKS
ADRIAN         CLOUDY    11   4  73 W5        30.01F WCI   3
ALMA           CLOUDY    17  16  96 S6        29.95F WCI   8
ANN ARBOR      CLOUDY    13   8  81 S3        29.99F
BAD AXE        CLOUDY    16  13  88 SW6       29.95F WCI   7
CARO           CLEAR      8   6  91 CALM      29.95F
DETROIT CITY   CLOUDY    18   9  68 SW9       30.01F WCI   7
DETROIT        LGT SNOW  19   9  65 S5        30.02F WCI  12
FLINT          CLOUDY    17  11  77 SW6       29.97F WCI   9
GROSSE ILE     FLURRIES  17   8  68 W6        30.01F WCI   9
HILLSDALE      CLOUDY    14   7  73 S5        29.96S WCI   6
HOWELL         CLOUDY    17  13  88 SW3       29.96F

CITY           SKY/WX    TMP DP  RH WIND       PRES   REMARKS
JACKSON        CLOUDY    17  11  77 S7        29.96F WCI   8
LAMBERTVILLE   CLOUDY    16   6  66 S3        30.02S
LANSING        CLOUDY    19  15  84 S7        29.96F WCI  10
LAPEER         FLURRIES  17  12  80 SW3       29.97F
MASON          CLOUDY    19  13  77 CALM      29.96F
MONROE         CLOUDY    15   6  68 CALM      30.01F
MT. CLEMENS    FLURRIES  17  13  87 SW6       29.98F WCI   8
PONTIAC        CLOUDY    15  12  88 SW5       29.95F WCI   8
PORT HOPE        N/A     16  11  80 VRB5      29.94F WCI   9
PORT HURON     LGT SNOW  12   9  85 CALM      29.99F
TRI CITIES     CLOUDY    14  14 100 S8        29.95F WCI   3
MIDLAND        CLOUDY    16  14  91 CALM      29.94F
TROY           LGT SNOW  18  11  74 SW5       30.01F WCI  11
SAGINAW HB     MOCLDY    12  10  92 S7        29.96F WCI   2
$$
MIZ043>046-050>051-056>058-064>065-071>073-077>080-150800-
SOUTHWEST LOWER MICHIGAN

CITY           SKY/WX    TMP DP  RH WIND       PRES   REMARKS
BATTLE CREEK   CLOUDY    19  14  81 S8        29.96F WCI   9
BENTON HARBOR  CLOUDY    22  14  71 S6        29.97F WCI  14
BIG RAPIDS     FLURRIES  18  15  88 SW3       29.90F
COLDWATER      CLOUDY    17  10  74 SW3       29.97F
HOLLAND        CLOUDY    21  16  81 S6        29.95F WCI  13
GRAND RAPIDS   CLOUDY    20  17  88 S8        29.94F WCI  10
IONIA          CLOUDY    19  17  89 S7        29.94F WCI  10
KALAMAZOO      CLOUDY    20  14  77 S10       29.96F WCI   9
LUDINGTON      FLURRIES  26  18  70 SW13      29.89F WCI  15
MARSHALL       CLOUDY    17  12  80 S6        29.96F WCI   9
MOUNT PLEASANT CLOUDY    19  15  85 S5        29.93F WCI  12
MUSKEGON       FLURRIES  23  16  74 CALM      29.94F
SOUTH HAVEN    CLOUDY    24  17  77 S5        29.96F WCI  18
$$
MIZ016>042-150800-
NORTHERN LOWER MICHIGAN

CITY           SKY/WX    TMP DP  RH WIND       PRES   REMARKS
ALPENA         CLOUDY    19  13  77 SW3       29.90F
BEAVER ISLAND  LGT SNOW  25  19  80 W12       29.83F WCI  14
BELLAIRE       LGT SNOW  20  19  95 S7        29.88F WCI  11
CADILLAC       LGT SNOW  17  14  91 SW7       29.85F WCI   7
CHARLEVOIX     LGT SNOW  22  20  92 SE5       29.87F WCI  16
FRANKFORT      FLURRIES  28  19  70 SW10      29.87F WCI  18
GAYLORD        LGT SNOW  16  12  84 S9        29.82F FOG     WCI   4
GRAYLING       LGT SNOW  18  13  82 S3        29.87F
HARBOR SPRINGS LGT SNOW  20  18  91 S6        29.83F WCI  13
HOUGHTON LAKE  FLURRIES  17  12  80 S7        29.88F WCI   8
MANISTEE       FLURRIES  25  20  81 S5        29.88F WCI  19
OSCODA         CLOUDY    17  10  73 SW8       29.92F WCI   7
PELLSTON       LGT SNOW  19  17  92 SE8       29.84F FOG     WCI   9
ROGERS CITY    CLOUDY    18  14  85 SW7       29.88F WCI   8
TRAVERSE CITY  LGT SNOW  21  17  84 VRB5      29.87F FOG     WCI  15
$$
MIZ007>008-015-150800-
EASTERN UPPER MICHIGAN

CITY           SKY/WX    TMP DP  RH WIND       PRES   REMARKS
KINROSS        LGT SNOW  16  12  84 SE5       29.82F FOG     WCI   9
MACKINAC ISLAN FLURRIES  23  15  73 S8G17     29.82F WCI  14
NEWBERRY       CLOUDY    17  15  94 SW3       29.80F FOG
S. S. MARIE    FLURRIES  16  13  88 CALM      29.83F
MUNISING         N/A     18  15  88 S5        29.80F WCI  11
$$
MIZ004>006-011>014-085-150800-
CENTRAL UPPER MICHIGAN

CITY           SKY/WX    TMP DP  RH WIND       PRES   REMARKS
MANISTIQUE     LGT SNOW  17  12  82 CALM      29.82F
ESCANABA       LGT SNOW  17  14  88 W7        29.83F FOG     WCI   8
$$
MIZ001>003-009>011-084-150800-
WESTERN UPPER MICHIGAN

CITY           SKY/WX    TMP DP  RH WIND       PRES   REMARKS
IRON MOUNTAIN  LGT SNOW  17  12  80 W5        29.78F WCI  10
HOUGHTON       LGT SNOW  19  14  81 CALM      29.75F
COPPER HARBOR    N/A     24  18  77 N10       29.77F WCI  14
IRONWOOD       LGT SNOW  14  11  87 W15       29.81F FOG     WCI  -1
$$

ABBREVIATIONS USED IN REMARKS
   TC - TEMPERATURE IN CELSIUS
  WCI - WIND CHILL INDEX
   HX - HEAT INDEX
  VSB - VISIBILITY




USA.gov is the U.S. government's official web portal to all federal, state and local government web resources and services.